| time (UTC) | temp F | wind direction | speed MPH | gust MPH | rain 1hr in | rain 24hr in | rain mn in | humidity % | barometer mb |
| 20260502202504 | 48 | 290 | 0.0 | 4.0 | 0.02 | 0.07 | 0.07 | 88 | 1010.2 |
| 20260502202007 | 48 | 286 | 0.0 | 4.0 | 0.02 | 0.07 | 0.07 | 87 | 1010.2 |
| 20260502201519 | 48 | 279 | 1.0 | 8.0 | 0.01 | 0.06 | 0.06 | 86 | 1010.2 |
| 20260502201010 | 48 | 236 | 2.0 | 9.0 | 0.01 | 0.06 | 0.06 | 82 | 1010.3 |
| 20260502200507 | 50 | 254 | 4.0 | 10.0 | 0.00 | 0.05 | 0.05 | 79 | 1010.4 |
| 20260502200025 | 52 | 290 | 6.0 | 10.0 | 0.00 | 0.05 | 0.05 | 73 | 1010.4 |
| 20260502195509 | 54 | 273 | 6.0 | 10.0 | 0.00 | 0.05 | 0.05 | 69 | 1010.2 |
| 20260502195008 | 54 | 233 | 2.0 | 4.0 | 0.00 | 0.05 | 0.05 | 68 | 1010.0 |
| 20260502194524 | 55 | 216 | 2.0 | 4.0 | 0.00 | 0.05 | 0.05 | 67 | 1009.9 |
| 20260502194007 | 55 | 222 | 1.0 | 5.0 | 0.00 | 0.05 | 0.05 | 67 | 1009.9 |
| 20260502193504 | 55 | 255 | 1.0 | 5.0 | 0.00 | 0.05 | 0.05 | 68 | 1009.9 |
| 20260502193014 | 55 | 205 | 3.0 | 5.0 | 0.00 | 0.05 | 0.05 | 66 | 1010.0 |
| 20260502192507 | 55 | 232 | 1.0 | 4.0 | 0.00 | 0.05 | 0.05 | 68 | 1010.0 |
| 20260502192008 | 56 | 163 | 1.0 | 4.0 | 0.00 | 0.05 | 0.05 | 66 | 1010.2 |
| 20260502191522 | 56 | 157 | 2.0 | 4.0 | 0.00 | 0.05 | 0.05 | 62 | 1010.2 |
| 20260502191009 | 57 | 213 | 1.0 | 4.0 | 0.00 | 0.05 | 0.05 | 66 | 1010.2 |
| 20260502190509 | 56 | 169 | 1.0 | 7.0 | 0.00 | 0.05 | 0.05 | 67 | 1010.3 |
| 20260502190023 | 55 | 255 | 2.0 | 7.0 | 0.00 | 0.05 | 0.05 | 66 | 1010.3 |
| 20260502185512 | 55 | 167 | 1.0 | 4.0 | 0.00 | 0.05 | 0.05 | 66 | 1010.3 |
| 20260502185008 | 55 | 196 | 2.0 | 3.0 | 0.00 | 0.05 | 0.05 | 67 | 1010.3 |
| 20260502184525 | 55 | 12 | 0.0 | 3.0 | 0.00 | 0.05 | 0.05 | 64 | 1010.3 |
| 20260502184007 | 56 | 55 | 0.0 | 6.0 | 0.00 | 0.05 | 0.05 | 63 | 1010.4 |
| 20260502183509 | 55 | 179 | 1.0 | 6.0 | 0.00 | 0.05 | 0.05 | 65 | 1010.4 |
| 20260502183028 | 55 | 170 | 2.0 | 6.0 | 0.00 | 0.05 | 0.05 | 65 | 1010.4 |
| 20260502182509 | 55 | 136 | 3.0 | 8.0 | 0.00 | 0.05 | 0.05 | 62 | 1010.3 |
| 20260502182011 | 55 | 80 | 2.0 | 9.0 | 0.00 | 0.05 | 0.05 | 62 | 1010.3 |
| 20260502181519 | 56 | 116 | 3.0 | 9.0 | 0.00 | 0.05 | 0.05 | 63 | 1010.3 |
| 20260502181005 | 55 | 238 | 2.0 | 8.0 | 0.00 | 0.05 | 0.05 | 67 | 1010.3 |
| 20260502180505 | 55 | 184 | 3.0 | 9.0 | 0.00 | 0.05 | 0.05 | 65 | 1010.4 |
| 20260502170504 | 54 | 284 | 1.0 | 6.0 | 0.00 | 0.05 | 0.05 | 66 | 1011.1 |
| 20260502164001 | 53 | 205 | 0.0 | 3.0 | 0.00 | 0.05 | 0.05 | 74 | 1011.2 |
| 20260502163501 | 53 | 228 | 1.0 | 3.0 | 0.00 | 0.05 | 0.05 | 75 | 1011.1 |
| 20260502163005 | 52 | 232 | 0.0 | 3.0 | 0.00 | 0.05 | 0.05 | 78 | 1011.2 |
| 20260502162500 | 52 | 269 | 1.0 | 2.0 | 0.00 | 0.05 | 0.05 | 81 | 1011.3 |
| 20260502162002 | 52 | 173 | 0.0 | 2.0 | 0.00 | 0.05 | 0.05 | 78 | 1011.3 |
| 20260502161506 | 52 | 163 | 0.0 | 2.0 | 0.00 | 0.05 | 0.05 | 79 | 1011.4 |
| 20260502161001 | 52 | 82 | 0.0 | 2.0 | 0.00 | 0.05 | 0.05 | 80 | 1011.4 |
| 20260502160503 | 52 | 52 | 0.0 | 2.0 | 0.00 | 0.05 | 0.05 | 81 | 1011.4 |
| 20260502152002 | 51 | 138 | 1.0 | 3.0 | 0.00 | 0.05 | 0.05 | 83 | 1012.1 |
| 20260502151505 | 51 | 92 | 0.0 | 5.0 | 0.00 | 0.05 | 0.05 | 87 | 1011.7 |
| 20260502151002 | 50 | 177 | 2.0 | 5.0 | 0.00 | 0.05 | 0.05 | 87 | 1011.8 |
| 20260502150502 | 50 | 352 | 1.0 | 3.0 | 0.00 | 0.05 | 0.05 | 87 | 1011.9 |
| 20260502130505 | 46 | 205 | 0.0 | 0.0 | 0.04 | 0.04 | 0.04 | 90 | 1012.6 |
| 20260502123505 | 46 | 239 | 0.0 | 0.0 | 0.01 | 0.01 | 0.01 | 88 | 1013.0 |
| 20260502123018 | 46 | 239 | 0.0 | 0.0 | 0.00 | 0.00 | 0.00 | 87 | 1013.0 |
| 20260502122508 | 47 | 255 | 0.0 | 3.0 | 0.00 | 0.00 | 0.00 | 87 | 1012.9 |
| 20260502122006 | 47 | 240 | 0.0 | 4.0 | 0.00 | 0.00 | 0.00 | 86 | 1012.9 |
| 20260502121512 | 47 | 240 | 1.0 | 4.0 | 0.00 | 0.00 | 0.00 | 86 | 1012.8 |
| 20260502121007 | 47 | 236 | 2.0 | 4.0 | 0.00 | 0.00 | 0.00 | 87 | 1012.9 |
| 20260502120504 | 47 | 283 | 2.0 | 3.0 | 0.00 | 0.00 | 0.00 | 87 | 1012.9 |
| 20260502115507 | 47 | 197 | 0.0 | 2.0 | 0.00 | 0.00 | 0.00 | 88 | 1012.4 |
| 20260502115004 | 46 | 240 | 1.0 | 2.0 | 0.00 | 0.00 | 0.00 | 88 | 1012.3 |
| 20260502114512 | 46 | 281 | 1.0 | 2.0 | 0.00 | 0.00 | 0.00 | 88 | 1012.2 |
| 20260502114004 | 46 | 292 | 0.0 | 2.0 | 0.00 | 0.00 | 0.00 | 87 | 1012.0 |
| 20260502113506 | 46 | 272 | 1.0 | 2.0 | 0.00 | 0.00 | 0.00 | 88 | 1011.8 |
| 20260502113017 | 46 | 309 | 1.0 | 2.0 | 0.00 | 0.00 | 0.00 | 88 | 1011.8 |
| 20260502112504 | 46 | 196 | 0.0 | 2.0 | 0.00 | 0.00 | 0.00 | 88 | 1011.8 |
| 20260502112004 | 46 | 196 | 0.0 | 1.0 | 0.00 | 0.00 | 0.00 | 87 | 1012.0 |
| 20260502111512 | 46 | 196 | 0.0 | 0.0 | 0.00 | 0.00 | 0.00 | 86 | 1012.1 |
| 20260502111004 | 0 | 0.0 | 0.0 | 0.00 | 0.00 | 0.00 | 1012.3 | ||
| 20260502110507 | 0 | 0.0 | 0.0 | 0.00 | 0.00 | 0.00 | 1012.3 | ||
| 20260502110008 | 0 | 0.0 | 0.0 | 0.00 | 0.00 | 0.00 | 1012.0 | ||
| 20260502105507 | 0 | 0.0 | 0.0 | 0.00 | 0.00 | 0.00 | 1012.0 | ||
| 20260502105003 | 0 | 0.0 | 0.0 | 0.00 | 0.00 | 0.00 | 1011.9 | ||
| 20260502104534 | 0 | 0.0 | 0.0 | 0.00 | 0.00 | 0.00 | 1011.7 | ||
| 20260502104004 | 0 | 0.0 | 0.0 | 0.00 | 0.00 | 0.00 | 1011.6 | ||
| 20260502103504 | 0 | 0.0 | 0.0 | 0.00 | 0.00 | 0.00 | 1011.7 | ||
| 20260502103014 | 0 | 0.0 | 0.0 | 0.00 | 0.00 | 0.00 | 1011.6 | ||
| 20260502102502 | 0 | 0.0 | 0.0 | 0.00 | 0.00 | 0.00 | 1011.5 | ||
| 20260502102008 | 0 | 0.0 | 0.0 | 0.00 | 0.00 | 0.00 | 1011.4 | ||
| 20260502101516 | 0 | 0.0 | 0.0 | 0.00 | 0.00 | 0.00 | 1011.3 | ||
| 20260502101007 | 0 | 0.0 | 0.0 | 0.00 | 0.00 | 0.00 | 1011.4 | ||
| 20260502100507 | 0 | 0.0 | 0.0 | 0.00 | 0.00 | 0.00 | 1011.4 | ||
| 20260502091524 | 0 | 0.0 | 0.0 | 0.00 | 0.00 | 0.00 | 1011.3 | ||
| 20260502091009 | 0 | 0.0 | 0.0 | 0.00 | 0.00 | 0.00 | 1011.5 | ||
| 20260502090504 | 0 | 0.0 | 0.0 | 0.00 | 0.00 | 0.00 | 1011.3 | ||
| 20260502071004 | 48 | 13 | 0.0 | 2.0 | 0.00 | 0.00 | 0.00 | 73 | 1011.2 |
| 20260502070507 | 48 | 281 | 0.0 | 2.0 | 0.00 | 0.00 | 0.00 | 72 | 1011.3 |
| 20260502070026 | 48 | 227 | 0.0 | 1.0 | 0.00 | 0.00 | 0.00 | 71 | 1011.3 |
| 20260502065501 | 48 | 221 | 0.0 | 0.0 | 0.00 | 0.00 | 0.00 | 72 | 1011.4 |
| 20260502065001 | 48 | 240 | 0.0 | 0.0 | 0.00 | 0.00 | 0.00 | 71 | 1011.3 |
| 20260502064510 | 49 | 158 | 0.0 | 0.0 | 0.00 | 0.00 | 0.00 | 72 | 1011.4 |
| 20260502064004 | 49 | 195 | 0.0 | 0.0 | 0.00 | 0.00 | 0.00 | 71 | 1011.6 |
| 20260502063504 | 49 | 195 | 0.0 | 0.0 | 0.00 | 0.00 | 0.00 | 72 | 1011.7 |
| 20260502063013 | 49 | 90 | 0.0 | 2.0 | 0.00 | 0.00 | 0.00 | 71 | 1011.5 |
| 20260502062503 | 49 | 178 | 0.0 | 2.0 | 0.00 | 0.00 | 0.00 | 70 | 1011.6 |
| 20260502062006 | 49 | 237 | 0.0 | 3.0 | 0.00 | 0.00 | 0.00 | 69 | 1011.6 |
| 20260502061515 | 49 | 237 | 0.0 | 3.0 | 0.00 | 0.00 | 0.00 | 69 | 1011.7 |
| 20260502061003 | 49 | 233 | 1.0 | 3.0 | 0.00 | 0.00 | 0.00 | 68 | 1011.7 |
| 20260502060507 | 49 | 242 | 0.0 | 2.0 | 0.00 | 0.00 | 0.00 | 68 | 1011.6 |
| 20260502060020 | 49 | 201 | 1.0 | 2.0 | 0.00 | 0.00 | 0.00 | 67 | 1011.6 |
| 20260502055504 | 49 | 163 | 0.0 | 0.0 | 0.00 | 0.00 | 0.00 | 66 | 1011.5 |
| 20260502055010 | 49 | 163 | 0.0 | 0.0 | 0.00 | 0.00 | 0.00 | 66 | 1011.6 |
| 20260502054522 | 49 | 163 | 0.0 | 2.0 | 0.00 | 0.00 | 0.00 | 66 | 1011.6 |
| 20260502054003 | 49 | 163 | 0.0 | 2.0 | 0.00 | 0.00 | 0.00 | 66 | 1011.6 |
| 20260502053503 | 49 | 157 | 0.0 | 2.0 | 0.00 | 0.00 | 0.00 | 64 | 1011.5 |
| 20260502053008 | 49 | 157 | 0.0 | 1.0 | 0.00 | 0.00 | 0.00 | 66 | 1011.6 |
| 20260502052503 | 49 | 156 | 0.0 | 2.0 | 0.00 | 0.00 | 0.00 | 64 | 1011.6 |
| 20260502052002 | 49 | 156 | 0.0 | 2.0 | 0.00 | 0.00 | 0.00 | 64 | 1011.6 |
| 20260502051529 | 49 | 156 | 0.0 | 2.0 | 0.00 | 0.00 | 0.00 | 63 | 1011.7 |
| 20260502051003 | 49 | 156 | 0.0 | 2.0 | 0.00 | 0.00 | 0.00 | 64 | 1011.7 |
| 20260502050503 | 50 | 157 | 0.0 | 2.0 | 0.00 | 0.00 | 0.00 | 64 | 1011.8 |
| 20260502050016 | 50 | 157 | 0.0 | 2.0 | 0.00 | 0.00 | 0.00 | 62 | 1011.7 |
| 20260502045504 | 50 | 157 | 0.0 | 2.0 | 0.00 | 0.00 | 0.00 | 62 | 1011.7 |
| 20260502045007 | 50 | 157 | 0.0 | 2.0 | 0.00 | 0.00 | 0.00 | 62 | 1011.7 |
| 20260502044524 | 50 | 161 | 0.0 | 2.0 | 0.00 | 0.00 | 0.00 | 62 | 1011.7 |
| 20260502044008 | 50 | 124 | 0.0 | 2.0 | 0.00 | 0.00 | 0.00 | 61 | 1011.7 |
| 20260502043507 | 49 | 123 | 1.0 | 2.0 | 0.00 | 0.00 | 0.00 | 61 | 1011.7 |
| 20260502043026 | 49 | 134 | 0.0 | 2.0 | 0.00 | 0.00 | 0.00 | 61 | 1011.8 |
| 20260502042504 | 49 | 135 | 0.0 | 2.0 | 0.00 | 0.00 | 0.00 | 61 | 1011.8 |
| 20260502042003 | 49 | 140 | 0.0 | 2.0 | 0.00 | 0.00 | 0.00 | 61 | 1011.7 |
| 20260502041508 | 50 | 178 | 0.0 | 2.0 | 0.00 | 0.00 | 0.00 | 60 | 1011.7 |
| 20260502041004 | 50 | 182 | 0.0 | 2.0 | 0.00 | 0.00 | 0.00 | 60 | 1011.8 |
| 20260502040503 | 50 | 226 | 0.0 | 2.0 | 0.00 | 0.00 | 0.00 | 59 | 1011.8 |
| 20260502040016 | 50 | 226 | 0.0 | 2.0 | 0.00 | 0.00 | 0.00 | 58 | 1011.8 |
| 20260502035506 | 50 | 204 | 0.0 | 2.0 | 0.00 | 0.00 | 0.00 | 58 | 1011.9 |
| 20260502035006 | 50 | 213 | 0.0 | 0.0 | 0.00 | 0.00 | 0.00 | 57 | 1011.8 |
| 20260502034534 | 50 | 215 | 0.0 | 0.0 | 0.00 | 0.00 | 0.00 | 56 | 1011.8 |
| 20260502034004 | 50 | 229 | 0.0 | 0.0 | 0.00 | 0.00 | 0.00 | 55 | 1011.8 |
| 20260502033509 | 51 | 211 | 0.0 | 0.0 | 0.00 | 0.00 | 0.00 | 55 | 1011.8 |
| 20260502033030 | 51 | 211 | 0.0 | 0.0 | 0.00 | 0.00 | 0.00 | 55 | 1011.8 |
| 20260502032507 | 51 | 211 | 0.0 | 0.0 | 0.00 | 0.00 | 0.00 | 55 | 1011.8 |
| 20260502032010 | 51 | 211 | 0.0 | 1.0 | 0.00 | 0.00 | 0.00 | 54 | 1011.9 |
| 20260502031508 | 51 | 211 | 0.0 | 2.0 | 0.00 | 0.00 | 0.00 | 54 | 1011.9 |
| 20260502031004 | 51 | 232 | 1.0 | 2.0 | 0.00 | 0.00 | 0.00 | 53 | 1011.9 |
| 20260502030503 | 51 | 211 | 1.0 | 2.0 | 0.00 | 0.00 | 0.00 | 52 | 1011.9 |
| 20260502030012 | 51 | 203 | 0.0 | 2.0 | 0.00 | 0.00 | 0.00 | 52 | 1011.8 |
| 20260502025503 | 50 | 203 | 0.0 | 2.0 | 0.00 | 0.00 | 0.00 | 52 | 1011.8 |
| 20260502025003 | 50 | 203 | 0.0 | 2.0 | 0.00 | 0.00 | 0.00 | 51 | 1011.7 |
| 20260502024516 | 50 | 196 | 0.0 | 2.0 | 0.00 | 0.00 | 0.00 | 52 | 1011.7 |
| 20260502024007 | 50 | 167 | 0.0 | 2.0 | 0.00 | 0.00 | 0.00 | 52 | 1011.6 |
| 20260502023507 | 50 | 167 | 1.0 | 2.0 | 0.00 | 0.00 | 0.00 | 50 | 1011.6 |
| 20260502023020 | 50 | 180 | 0.0 | 2.0 | 0.00 | 0.00 | 0.00 | 51 | 1011.7 |
| 20260502022506 | 49 | 161 | 0.0 | 2.0 | 0.00 | 0.00 | 0.00 | 52 | 1011.7 |
| 20260502022007 | 50 | 178 | 1.0 | 2.0 | 0.00 | 0.00 | 0.00 | 52 | 1011.7 |
| 20260502021524 | 50 | 163 | 0.0 | 2.0 | 0.00 | 0.00 | 0.00 | 48 | 1011.6 |
| 20260502021008 | 50 | 142 | 0.0 | 0.0 | 0.00 | 0.00 | 0.00 | 48 | 1011.5 |
| 20260502020507 | 50 | 143 | 0.0 | 0.0 | 0.00 | 0.00 | 0.00 | 47 | 1011.5 |
| 20260502020008 | 50 | 143 | 0.0 | 0.0 | 0.00 | 0.00 | 0.00 | 47 | 1011.5 |
| 20260502015505 | 50 | 143 | 0.0 | 0.0 | 0.00 | 0.00 | 0.00 | 48 | 1011.5 |
| 20260502015009 | 50 | 143 | 0.0 | 0.0 | 0.00 | 0.00 | 0.00 | 47 | 1011.4 |
| 20260502014522 | 50 | 143 | 0.0 | 0.0 | 0.00 | 0.00 | 0.00 | 48 | 1011.4 |
| 20260502014004 | 51 | 143 | 0.0 | 0.0 | 0.00 | 0.00 | 0.00 | 48 | 1011.4 |
| 20260502013504 | 51 | 143 | 0.0 | 0.0 | 0.00 | 0.00 | 0.00 | 43 | 1011.3 |
| 20260502013016 | 51 | 143 | 0.0 | 0.0 | 0.00 | 0.00 | 0.00 | 44 | 1011.4 |
| 20260502012507 | 51 | 143 | 0.0 | 0.0 | 0.00 | 0.00 | 0.00 | 45 | 1011.4 |
| 20260502012009 | 51 | 143 | 0.0 | 0.0 | 0.00 | 0.00 | 0.00 | 46 | 1011.4 |
| 20260502011529 | 52 | 143 | 0.0 | 0.0 | 0.00 | 0.00 | 0.00 | 44 | 1011.4 |
| 20260502011008 | 52 | 143 | 0.0 | 0.0 | 0.00 | 0.00 | 0.00 | 43 | 1011.3 |
| 20260502010508 | 52 | 143 | 0.0 | 2.0 | 0.00 | 0.00 | 0.00 | 42 | 1011.2 |
| 20260502010023 | 53 | 143 | 0.0 | 2.0 | 0.00 | 0.00 | 0.00 | 42 | 1011.2 |
| 20260502005511 | 53 | 143 | 1.0 | 2.0 | 0.00 | 0.00 | 0.00 | 42 | 1011.1 |
| 20260502005010 | 53 | 150 | 1.0 | 2.0 | 0.00 | 0.00 | 0.00 | 41 | 1011.1 |
| 20260502004513 | 53 | 182 | 0.0 | 2.0 | 0.00 | 0.00 | 0.00 | 40 | 1011.1 |
| 20260502004007 | 54 | 205 | 1.0 | 2.0 | 0.00 | 0.00 | 0.00 | 41 | 1011.0 |
| 20260502003503 | 54 | 216 | 1.0 | 2.0 | 0.00 | 0.00 | 0.00 | 40 | 1011.0 |
| 20260502003022 | 55 | 219 | 0.0 | 2.0 | 0.00 | 0.00 | 0.00 | 36 | 1010.9 |
| 20260502002508 | 56 | 244 | 1.0 | 2.0 | 0.00 | 0.00 | 0.00 | 35 | 1010.9 |
| 20260502002011 | 56 | 240 | 1.0 | 2.0 | 0.00 | 0.00 | 0.00 | 35 | 1010.7 |
| 20260502001524 | 56 | 243 | 1.0 | 3.0 | 0.00 | 0.00 | 0.00 | 34 | 1010.5 |
| 20260502001007 | 56 | 249 | 1.0 | 3.0 | 0.00 | 0.00 | 0.00 | 34 | 1010.4 |
| 20260502000510 | 56 | 214 | 2.0 | 3.0 | 0.00 | 0.00 | 0.00 | 33 | 1010.4 |
| 20260502000029 | 56 | 236 | 1.0 | 3.0 | 0.00 | 0.00 | 0.00 | 34 | 1010.4 |
| 20260501235511 | 57 | 246 | 1.0 | 3.0 | 0.00 | 0.00 | 0.00 | 33 | 1010.4 |
| 20260501235007 | 57 | 244 | 1.0 | 4.0 | 0.00 | 0.00 | 0.00 | 33 | 1010.3 |
| 20260501234531 | 57 | 245 | 2.0 | 4.0 | 0.00 | 0.00 | 0.00 | 33 | 1010.2 |
| 20260501234009 | 57 | 263 | 1.0 | 3.0 | 0.00 | 0.00 | 0.00 | 32 | 1010.1 |
| 20260501233507 | 57 | 279 | 1.0 | 4.0 | 0.00 | 0.00 | 0.00 | 33 | 1010.0 |
| 20260501233013 | 58 | 238 | 1.0 | 4.0 | 0.00 | 0.00 | 0.00 | 33 | 1009.9 |
| 20260501232508 | 58 | 295 | 2.0 | 8.0 | 0.00 | 0.00 | 0.00 | 32 | 1009.9 |
| 20260501232005 | 59 | 268 | 3.0 | 8.0 | 0.00 | 0.00 | 0.00 | 31 | 1009.8 |
| 20260501231532 | 59 | 248 | 2.0 | 8.0 | 0.00 | 0.00 | 0.00 | 31 | 1009.8 |
| 20260501231007 | 59 | 246 | 3.0 | 6.0 | 0.00 | 0.00 | 0.00 | 32 | 1009.7 |
| 20260501230508 | 59 | 256 | 2.0 | 5.0 | 0.00 | 0.00 | 0.00 | 32 | 1009.7 |
| 20260501230024 | 59 | 270 | 1.0 | 4.0 | 0.00 | 0.00 | 0.00 | 34 | 1009.6 |
| 20260501225508 | 60 | 275 | 2.0 | 3.0 | 0.00 | 0.00 | 0.00 | 32 | 1009.6 |
| 20260501225007 | 60 | 236 | 1.0 | 3.0 | 0.00 | 0.00 | 0.00 | 32 | 1009.6 |
| 20260501224527 | 59 | 261 | 0.0 | 3.0 | 0.00 | 0.00 | 0.00 | 31 | 1009.5 |
| 20260501224006 | 60 | 289 | 2.0 | 3.0 | 0.00 | 0.00 | 0.00 | 32 | 1009.5 |
| 20260501223510 | 60 | 286 | 1.0 | 4.0 | 0.00 | 0.00 | 0.00 | 32 | 1009.5 |
| 20260501223028 | 60 | 297 | 2.0 | 6.0 | 0.00 | 0.00 | 0.00 | 33 | 1009.6 |
| 20260501222511 | 60 | 244 | 3.0 | 8.0 | 0.00 | 0.00 | 0.00 | 32 | 1009.6 |
| 20260501222008 | 60 | 211 | 2.0 | 8.0 | 0.00 | 0.00 | 0.00 | 31 | 1009.6 |
| 20260501221517 | 60 | 267 | 3.0 | 5.0 | 0.00 | 0.00 | 0.00 | 31 | 1009.6 |
| 20260501221008 | 60 | 290 | 2.0 | 5.0 | 0.00 | 0.00 | 0.00 | 32 | 1009.5 |
| 20260501220507 | 60 | 269 | 3.0 | 6.0 | 0.00 | 0.00 | 0.00 | 30 | 1009.5 |
| 20260501220022 | 60 | 207 | 2.0 | 7.0 | 0.00 | 0.00 | 0.00 | 31 | 1009.4 |
| 20260501215509 | 61 | 250 | 2.0 | 7.0 | 0.00 | 0.00 | 0.00 | 31 | 1009.5 |
| 20260501215007 | 61 | 272 | 4.0 | 8.0 | 0.00 | 0.00 | 0.00 | 31 | 1009.5 |
| 20260501214535 | 61 | 244 | 3.0 | 8.0 | 0.00 | 0.00 | 0.00 | 31 | 1009.4 |
| 20260501214003 | 61 | 319 | 2.0 | 7.0 | 0.00 | 0.00 | 0.00 | 30 | 1009.4 |
| 20260501213503 | 61 | 277 | 2.0 | 10.0 | 0.00 | 0.00 | 0.00 | 32 | 1009.3 |
| 20260501213011 | 60 | 273 | 4.0 | 10.0 | 0.00 | 0.00 | 0.00 | 31 | 1009.3 |
| 20260501212503 | 61 | 295 | 4.0 | 10.0 | 0.00 | 0.00 | 0.00 | 30 | 1009.3 |
| 20260501212003 | 62 | 262 | 4.0 | 10.0 | 0.00 | 0.00 | 0.00 | 30 | 1009.3 |
| 20260501211520 | 61 | 270 | 3.0 | 9.0 | 0.00 | 0.00 | 0.00 | 31 | 1009.3 |
| 20260501211005 | 61 | 192 | 3.0 | 9.0 | 0.00 | 0.00 | 0.00 | 32 | 1009.3 |
| 20260501210508 | 61 | 315 | 2.0 | 7.0 | 0.00 | 0.00 | 0.00 | 30 | 1009.3 |
| 20260501210020 | 62 | 220 | 3.0 | 11.0 | 0.00 | 0.00 | 0.00 | 32 | 1009.4 |
| 20260501205507 | 61 | 263 | 5.0 | 11.0 | 0.00 | 0.00 | 0.00 | 30 | 1009.1 |
| 20260501205008 | 62 | 292 | 3.0 | 8.0 | 0.00 | 0.00 | 0.00 | 30 | 1009.2 |
| 20260501204526 | 62 | 246 | 4.0 | 8.0 | 0.00 | 0.00 | 0.00 | 30 | 1009.2 |
| 20260501204009 | 61 | 285 | 3.0 | 8.0 | 0.00 | 0.00 | 0.00 | 30 | 1009.2 |
| 20260501203509 | 61 | 307 | 3.0 | 10.0 | 0.00 | 0.00 | 0.00 | 31 | 1009.1 |
| 20260501203027 | 61 | 296 | 5.0 | 10.0 | 0.00 | 0.00 | 0.00 | 29 | 1009.1 |